Weather in Fukui

Japan     36°02′47″N   136°09′10″E
temp.,
°C
wind,
m/s
gust,
m/s
humid.,
%
clouds,
%
prec.,
mm/h
press.,
hPa
HPBL,
m
17 june, thu
thu1700:00+18ese1197100 0.4 100612
03:00+17se119667 0.5 100611
06:00+18se11960 0.0 100658
09:00+22wnw228231 0.6 1006648
12:00+24wnw227038 1.5 10051100
15:00+24nw446692 2.5 10051172
18:00+21nw2381100 0.2 1005399
21:00+16ese119892 0.2 100711
18 june, fri
fri1800:00+16sse119787 0.0 100617
03:00+16se229392 0.0 100533
06:00+17se1290100 0.0 100561
09:00+25ssw125227 0.0 1004997
12:00+28wsw3242100 0.0 10031724
15:00+25wsw2457100 0.0 1002737
18:00+20ssw2890100 0.5 1003236
21:00+18ese2393100 0.6 100368
19 june, sat
sat1900:00+17se2389100 0.0 100273
03:00+17se2386100 0.1 100181
06:00+16ese2397100 1.2 100189
09:00+17ese1399100 6.9 1000150
12:00+18se1298100 9.8 1000109
15:00+18sw0199100 10.8 100074
18:00+20se119499 0.2 1000208
21:00+17sse11973 0.2 100111
20 june, sun
sun2000:00+16se119899 0.0 100113
03:00+16se1198100 0.0 100114
06:00+17ese0097100 0.0 100246
09:00+21nw1280100 0.4 1003807
12:00+24nw4459100 0.1 10031298
15:00+23nw4563100 0.1 10031089
18:00+20nw2381100 0.0 1004571
21:00+17ene0097100 0.2 100511
21 june, mon
mon2100:00+16se009899 0.0 100611
03:00+15e11988 0.0 100612
06:00+16e11945 0.0 100866
09:00+22nnw23635 0.0 1008910
12:00+25nw435024 0.0 10071399
15:00+24nw43589 0.0 10071188
18:00+21nnw23780 0.1 1009371
21:00+16ese119665 0.1 101112